#timestamp,LO_Frequency,Hit 
1503630015.3,286047035.8,N
1503630035.1,286047034.2,N
1503630055.8,286047035.2,N
1503630075.7,286047035.7,N
1503630095.5,286047037.5,N
1503630115.3,286047037.2,N
1503630135.2,286047037.6,N
1503630155.9,286047037.7,N
1503630175.7,286047036.9,N
1503630195.6,286047039.6,N
1503630215.4,286047039.3,N
1503630235.2,286046645.9,N
1503630255.0,286046815.1,N
1503630255.9,286046815.1,N
1503630275.8,286047096.6,N
1503630295.6,286047040.9,N
1503630315.4,286047040.6,N
1503630335.3,286046637.0,N
1503630355.1,286046633.3,N
1503630375.8,286046881.1,N
1503630395.7,286047127.2,N
1503630415.5,286047072.4,N
1503630435.3,286046879.9,N
1503630455.2,286046879.8,N
1503630475.9,286046953.9,N
1503630495.7,286046952.3,N
1503630515.5,286046954.0,N
1503630535.4,286046951.3,N
1503630555.2,286046615.7,N
1503630575.0,286047070.9,N
1503630575.9,286047070.9,N
1503630595.8,286046629.2,N
1503630615.6,286046628.6,N
1503630635.4,286046628.5,N
1503630655.3,286046628.9,N
1503630675.1,286046628.9,N
1503630695.8,286046631.5,N
1503630715.7,286046628.9,N
1503630735.5,286046629.0,N
1503630755.3,286046682.3,N
1503630775.2,286046697.4,N
1503630795.9,286046682.6,N
1503630815.7,286046685.6,N
1503630835.6,286046692.9,N
1503630855.4,286046692.4,N
1503630875.2,286047636.4,P
1503630895.1,286047287.6,N
1503630896.0,286047287.6,N
1503630915.8,286047286.8,N
1503630935.6,286047120.7,N
1503630955.5,286047079.9,N
1503630975.3,286046990.2,N
1503630995.1,286047237.3,N
1503631015.8,286046992.1,N
1503631035.7,286046905.1,N
1503631055.5,286046906.1,N
1503631075.3,286047102.4,N
1503631095.2,286047150.1,N
1503631115.9,286046871.9,N
1503631135.7,286046867.0,N
1503631155.6,286046867.9,N
1503631175.4,286046867.2,N
1503631195.2,286046867.6,N
1503631215.1,286046867.5,N
1503631216.0,286046867.5,N
1503631235.8,286046868.1,N
1503631255.6,286046867.0,N
1503631275.4,286046867.3,N
1503631295.3,286046867.0,N
1503631315.1,286046482.8,N
1503631335.8,286046744.5,N
1503631355.7,286046504.5,N
1503631375.5,286046660.3,N
1503631395.3,286046494.5,N
1503631415.2,286046657.4,N
1503631435.9,286046498.1,N
1503631455.7,286046658.5,N
1503631475.6,286046654.3,N
1503631495.4,286046541.3,N
1503631515.2,286046494.6,N
1503631535.1,286046658.0,N
1503631536.0,286046658.0,N
1503631555.8,286046658.4,N
1503631575.6,286046773.2,N
1503631595.5,286046750.1,N
1503631615.3,286046738.4,N
1503631635.1,286046923.3,N
1503631655.8,286046814.8,N
1503631675.7,286047044.3,N
1503631695.5,286047839.7,P
1503631715.4,286047206.2,N
1503631735.2,286047169.5,N
1503631755.0,286047660.4,N
1503631755.9,286047660.4,N
1503631775.7,286047659.9,N
1503631795.6,286047199.9,N
1503631815.4,286047198.4,N
1503631835.2,286047200.0,N
1503631855.1,286047195.5,N
1503631856.0,286047195.5,N
1503631875.8,286047202.7,N
1503631895.6,286047202.3,N
1503631915.5,286047202.3,N
1503631935.3,286047189.2,N
1503631955.1,286047201.9,N
1503631975.9,286048099.7,P
1503631995.7,286046894.1,N
1503632015.5,286046898.3,N
1503632035.4,286046605.2,N
1503632055.2,286046895.1,N
1503632075.0,286046887.9,N
1503632075.9,286046887.9,N
1503632095.8,286046887.7,N
1503632115.6,286046887.8,N
1503632135.4,286046887.7,N
1503632155.2,286046884.3,N
1503632175.1,286046890.2,N
1503632176.0,286046890.2,N
1503632195.8,286046880.0,N
1503632215.6,286046878.2,N
1503632235.5,286046880.2,N
1503632255.3,286047247.8,N
1503632275.1,286047247.7,N
1503632295.9,286047250.2,N
1503632315.7,286047246.5,N
1503632335.5,286046870.8,N
1503632355.4,286047248.5,N
1503632375.2,286046872.0,N
1503632395.0,286047211.5,N
1503632395.9,286047211.5,N
1503632415.7,286047211.1,N
1503632435.6,286047256.1,N
1503632455.4,286047701.5,N
1503632475.2,286047257.2,N
1503632495.1,286047258.8,N
1503632496.0,286047258.8,N
1503632515.8,286047670.6,N
1503632535.6,286047255.7,N
1503632555.5,286047257.5,N
1503632575.3,286046869.7,N
1503632595.1,286046853.6,N
1503632615.9,286047258.6,N
1503632635.7,286047255.5,N
1503632655.5,286047257.5,N
1503632675.4,286047255.9,N
1503632695.2,286047256.1,N
1503632715.0,286047256.9,N
1503632715.9,286047256.9,N
1503632735.8,286047256.9,N
1503632755.6,286047256.1,N
1503632775.4,286047256.2,N
1503632795.2,286047258.0,N
1503632815.1,286047256.6,N
1503632816.0,286047256.6,N
1503632835.8,286047211.6,N
1503632855.6,286047213.6,N
1503632875.5,286047258.8,N
1503632895.3,286047259.7,N
1503632915.1,286047259.9,N
1503632935.9,286047265.2,N
1503632955.7,286047261.1,N
1503632975.5,286047219.6,N
1503632995.4,286047266.8,N
1503633015.2,286047183.8,N
1503633035.0,286047184.2,N
1503633035.9,286047184.2,N
1503633055.8,286047260.7,N
1503633075.6,286047268.4,N
1503633095.4,286047344.0,P
1503633115.3,286047123.7,N
1503633135.1,286047124.1,N
1503633136.0,286047124.1,N
1503633155.8,286047123.9,N
1503633175.7,286047124.0,N
1503633195.5,286047124.3,N
1503633215.3,286047123.7,N
1503633235.1,286047119.5,N
1503633255.9,286047113.9,N
1503633275.7,286047114.3,N
1503633295.5,286047113.9,N
1503633315.4,286047114.1,N
1503633335.2,286047113.5,N
1503633355.0,286047532.7,P
1503633355.9,286047532.7,N
1503633375.8,286046975.0,N
1503633395.6,286046974.7,N
1503633415.4,286046974.3,N
1503633435.3,286046974.7,N
1503633455.1,286046974.3,N
1503633475.8,286046433.0,N
1503633495.7,286046512.7,N
1503633515.5,286046916.6,N
1503633535.3,286046917.9,N
1503633555.2,286046917.6,N
1503633575.9,286046918.0,N
1503633595.7,286046917.5,N
